カタログに戻る

NOAA 16 DEB

運用中SSO
NORAD 41401·DEBRIS·🇺🇸 United States

打ち上げ Sep 21, 2000 から Vandenberg Space Force Base

Loading…

次のパス (今後24時間)

TLE

最新Source: Space-Track

元期: Sep 14, 2026, 13:16 UTC

1 41401U 00055KE  26257.55291508  .00002200  00000-0  96310-3 0  9993
2 41401  98.6627 291.0052 0016953 277.1539  82.7712 14.24669913546239

AllMySatでNOAA 16 DEBをリアルタイム追跡

Download on the App Store